Weather History for Point Mugu, CA

Change the Weather History Date:

Tuesday, February 12, 2013

  Actual Average Record
Temperature  
Mean Temperature 31 °F -  
Max Temperature 61 °F 60 °F 84 °F (2006)
Min Temperature 1 °F 44 °F 1 °F (2013)
Degree Days  
Heating Degree Days 34    
Moisture  
Dew Point 37 °F    
Average Humidity 54    
Maximum Humidity 63    
Minimum Humidity 45    
Precipitation  
Precipitation 0.00 in - - ()
Sea Level Pressure  
Sea Level Pressure 30.30 in    
Wind  
Wind Speed 5 mph (NNW)    
Max Wind Speed 8 mph    
Max Gust Speed -    
Visibility 7 miles    
Events      
Averages and records for this station are not official NWS values.
T = Trace of Precipitation, MM = Missing Value Source: NWS Daily Summary

Daily Weather History Graph

Daily Weather History Graph

Search for Another Location

Airport:

Trip Planner

Search our weather history database for the weather conditions in past years. The results will help you decide how hot, cold, wet, or windy it might be!

Date:

Astronomy

Feb. 12, 2013 Rise Set
Actual Time 6:43 AM PST 5:37 PM PST
Civil Twilight 6:18 AM PST 6:03 PM PST
Nautical Twilight 5:48 AM PST 6:33 PM PST
Astronomical Twilight 5:19 AM PST 7:02 PM PST
Moon 7:53 AM PST (2/12) 8:32 PM PST (2/12)
Length of Visible Light 11h 45m
Length of Day
10h 53m
Waxing Crescent, 8% of the Moon is Illuminated
Feb 12
Waxing Crescent
Feb 17
First Quarter
Feb 25
Full
Mar 4
Last Quarter
Mar 11
New

Hourly Weather History & Observations

Time (PST) Temp. Windchill Dew Point Humidity Pressure Visibility Wind Dir Wind Speed Gust Speed Precip Events Conditions
12:54 AM - - - N/A% 30.27 in - NNW 5.8 mph - N/A   Clear
1:54 AM - - - N/A% 30.27 in - North 4.6 mph - N/A   Clear
2:54 AM - - - N/A% 30.26 in - North 4.6 mph - N/A   Clear
3:54 AM - - - N/A% 30.27 in - North 5.8 mph - N/A   Clear
4:54 AM 1.9 °F -10.6 °F - N/A% 30.27 in - North 6.9 mph - N/A   Clear
5:54 AM 39.9 °F 35.8 °F 28.0 °F 63% 30.29 in 7.0 mi North 5.8 mph - N/A   Partly Cloudy
6:54 AM 41.2 °F - 28.8 °F 61% 30.31 in 7.0 mi Calm Calm - N/A   Partly Cloudy
7:54 AM 42.3 °F 39.4 °F 28.6 °F 58% 30.34 in 7.0 mi North 4.6 mph - N/A   Partly Cloudy
8:54 AM 48.7 °F - 30.2 °F 49% 30.36 in 7.0 mi North 4.6 mph - N/A   Partly Cloudy
9:54 AM 53.2 °F - 33.8 °F 48% 30.36 in 7.0 mi Calm Calm - N/A   Partly Cloudy
10:54 AM 55.9 °F - 38.7 °F 52% 30.36 in 7.0 mi SSW 6.9 mph - N/A   Partly Cloudy
11:54 AM 56.7 °F - 38.8 °F 51% 30.34 in 7.0 mi South 6.9 mph - N/A   Partly Cloudy
12:54 PM 57.9 °F - 36.7 °F 45% 30.31 in 7.0 mi SSW 8.1 mph - N/A   Partly Cloudy
1:54 PM 58.5 °F - 41.2 °F 53% 30.29 in 7.0 mi WSW 5.8 mph - N/A   Partly Cloudy
2:54 PM 59.5 °F - 41.4 °F 51% 30.28 in 7.0 mi WSW 8.1 mph - N/A   Partly Cloudy
3:54 PM 61.0 °F - 41.0 °F 48% 30.27 in 7.0 mi West 8.1 mph - N/A   Partly Cloudy
4:54 PM 59.7 °F - 41.2 °F 50% 30.27 in 7.0 mi West 5.8 mph - N/A   Partly Cloudy
5:54 PM 59.0 °F - 41.0 °F 51% 30.27 in 7.0 mi Calm Calm - N/A   Partly Cloudy
6:54 PM 56.7 °F - 43.2 °F 61% 30.27 in 7.0 mi Calm Calm - N/A   Clear
7:54 PM 56.5 °F - 41.2 °F 57% 30.28 in 7.0 mi Calm Calm - N/A   Clear
8:54 PM 55.9 °F - 39.4 °F 54% 30.29 in 7.0 mi NNE 3.5 mph - N/A   Clear
9:54 PM - - - N/A% 30.30 in 7.0 mi NNE 3.5 mph - N/A   Clear
10:05 PM 48.2 °F - 35.6 °F 62% 30.29 in 7.0 mi NNE 3.5 mph - N/A   Clear
10:54 PM 48.4 °F - 35.8 °F 62% 30.29 in 7.0 mi North 4.6 mph - N/A   Clear
11:54 PM - - - N/A% 30.29 in - NNE 5.8 mph - N/A   Clear